Location: Seattle
(47.6064°N, 122.3308°W)
Time: 14:38:21
(UTC-08:00)

deb Explorer IX - Visible Passes

Search period start: 25 November 2020 00:00
Search period end: 05 December 2020 00:00
Orbit: 538 x 1104 km, 38.8° (Epoch: 25 November)

Date Brightness Start Highest point End Pass type
(mag) Time Alt. Az. Time Alt. Az. Time Alt. Az.
25 Nov ? 18:29:31 10° SW 18:33:39 23° SSE 18:34:33 22° SSE visible
25 Nov ? 20:15:41 10° WSW 20:15:50 11° WSW 20:15:50 11° WSW visible
26 Nov ? 18:06:02 10° SW 18:10:23 24° SSE 18:12:33 18° SE visible
26 Nov ? 19:52:16 10° WSW 19:53:50 17° SW 19:53:50 17° SW visible
27 Nov ? 17:42:32 10° SW 17:47:06 25° SSE 17:50:33 13° ESE visible
27 Nov ? 19:28:50 10° WSW 19:31:50 25° SW 19:31:50 25° SW visible
28 Nov ? 17:19:00 10° SW 17:23:48 26° SSE 17:28:03 10° ESE visible
28 Nov ? 19:05:22 10° WSW 19:09:50 30° S 19:09:50 30° S visible
29 Nov ? 16:55:28 10° SW 17:00:29 27° SSE 17:04:55 10° ESE visible
29 Nov ? 18:41:52 10° WSW 18:46:45 31° S 18:47:51 28° SSE visible
30 Nov ? 18:18:22 10° WSW 18:23:27 32° S 18:25:53 21° SE visible
30 Nov ? 20:05:47 10° WSW 20:07:10 15° SW 20:07:10 15° SW visible
01 Dec ? 17:54:51 10° WSW 18:00:08 33° S 18:03:57 14° SE visible
01 Dec ? 19:42:17 10° WSW 19:45:15 19° SW 19:45:15 19° SW visible
02 Dec ? 17:31:19 10° WSW 17:36:48 34° S 17:41:34 10° ESE visible
02 Dec ? 19:18:46 10° WSW 19:22:53 21° SSW 19:23:23 21° SSW visible
03 Dec ? 17:07:45 10° WSW 17:13:27 35° S 17:18:23 10° ESE visible
03 Dec ? 18:55:14 10° WSW 18:59:33 22° SSW 19:01:35 18° S visible
04 Dec ? 16:44:11 10° WSW 16:50:04 36° S 16:55:12 10° ESE visible
04 Dec ? 18:31:40 10° WSW 18:36:14 23° SSW 18:39:53 12° SSE visible
